Location: Ch�risy
(50.2331°N, 2.9131°E)
Time: 19:44:30
(UTC+00:00)

Cosmos 1939 Rocket - Pass Details

Date: 17 January 2021
Orbit: 531 x 585 km, 97.4° (Epoch: 27 February)

Event Time Altitude Azimuth Distance (km) Brightness Sun altitude
Rises 17:45:32 0° 169° (S) 2,799 6.5 -13.7°
Reaches altitude 10° 17:47:42 10° 171° (S) 1,902 5.6 -14.0°
Maximum altitude 17:51:49 75° 257° (WSW) 607 3.1 -14.6°
Drops below altitude 10° 17:55:57 10° 344° (NNW) 1,900 5.6 -15.3°
Sets 17:58:07 0° 346° (NNW) 2,796 6.4 -15.6°
